Starlink 33916

operational
NORAD ID: 63792 Int'l Des: 2025-091 Owner: SPXS Country: US Constellation: starlink
LEOCIRCULAR

About Starlink 33916

Description loading...

Live Position

Loading 3D Globe...

Upcoming Passes

Altitude History

Altitude vs Time

uPlot chart will show altitude changes over time

Two-Line Element Set

1 63792U 25091T 25258.48409253 .00033948 00000-0 12362-2 0 9994
2 63792 43.0042 322.2670 0000764 273.5261 86.5504 15.27615583 22103
Epoch: Sep 15, 2025 • Age: 22 hours

Current Status

Altitude 482.9 km
Velocity 7.63 km/s
Sub-Earth Point -3.24°S, 174.56°E
Launch Date May 2, 2025
Age 0.3 years
Type internet

Technical Details

Classification Payload
Mass 575.00 kg
Dry Mass 530.00 kg
Total Mass 575.00 kg
Length 0.30 m
Diameter 4.10 m
Span 29.00 m
Shape Box + pan
Manufacturer SPXS
Bus Type Starlink V2MO
Phase Status In Orbit
Owner/State SPXS/US

Large Constellations

Loading constellations...